Regional Weather Roundup
Issued by NWS Albany, NY

Current Version | Previous Version | Graphics & Text | Print | Product List | Glossary Off
Versions: 1 2 3 4 5 6 7 8 9 10 11 12 13 14 15 16 17 18 19 20 21 22 23 24 25 26 27 28

000
ASUS41 KALY 291110
RWRALY

NEW YORK STATE HOURLY WEATHER ROUNDUP
NATIONAL WEATHER SERVICE ALBANY NY
700 AM EDT WED MAR 29 2017

NOTE: "FAIR" INDICATES FEW OR NO CLOUDS BELOW 12,000 FEET WITH NO
SIGNIFICANT WEATHER AND/OR NO OBSTRUCTIONS TO VISIBILITY.

NYZ032-033-038>043-046>054-057>066-NYZ062>081-082-084-291200-
EAST


CITY           SKY/WX    TMP DP  RH WIND       PRES   REMARKS
ALBANY         LGT RAIN  40  37  89 NW5       30.09R
GLENS FALLS    LGT RAIN  38  35  89 NE5       30.09R WCI  34
POUGHKEEPSIE   CLOUDY    40  37  89 N7        30.04S
NEWBURGH       CLOUDY    39  39 100 NW5       30.05R
MONTGOMERY     CLOUDY    41  39  93 NW3       30.04S
WHITE PLAINS   PTCLDY    41  36  82 N14       30.00R
ISLIP          MOCLDY    43  40  89 NW13      29.98R
NEW YORK CITY  MOCLDY    46  38  73 N12       30.02R
CENTRAL PARK   CLOUDY    44  38  79 N8        30.05R
$$

NYZ005>009-017-018-044>046-055-056-291200-
CENTRAL


CITY           SKY/WX    TMP DP  RH WIND       PRES   REMARKS
FULTON         CLEAR     33  29  85 N5        30.18R WCI  29
SYRACUSE       PTCLDY    33  31  92 W6        30.17R WCI  28
ROME           PTCLDY    32  32 100 NW5       30.16R WCI  27
ELMIRA         CLEAR     35  30  82 W3        30.16R
BINGHAMTON     CLEAR     33  29  85 N7        30.10R WCI  27
MONTICELLO     CLOUDY    36  32  87 NW12      30.06R WCI  27
$$

NYZ026>034-041>043-087-291200-
NORTH


CITY           SKY/WX    TMP DP  RH WIND       PRES   REMARKS
WATERTOWN      CLEAR     25  25 100 CALM      30.19R
FORT DRUM      NOT AVBL
MASSENA        CLOUDY    36  28  73 NW5       30.17S WCI  32
SARANAC LAKE   CLOUDY    31  29  92 CALM      30.06S
PLATTSBURGH    CLOUDY    36  28  73 NW7       30.12S WCI  30
$$

NYZ001>004-010>016-019>021-085-291200-
WEST


CITY           SKY/WX    TMP DP  RH WIND       PRES   REMARKS
NIAGARA FALLS  CLEAR     35  29  78 CALM      30.20R
BUFFALO        PTCLDY    36  31  82 CALM      30.20R
DUNKIRK        PTCLDY    30  29  96 CALM      30.21R
JAMESTOWN      CLOUDY    34  30  86 N6        30.15S WCI  29
WELLSVILLE     CLOUDY    37  31  78 NE3       30.15R
ROCHESTER      CLOUDY    38  36  92 NE5       30.20S FOG     WCI  34
PENN YAN       MOCLDY    36  30  79 N7        30.18R WCI  30
$$

             KEY
       WCI = WIND CHILL INDEX
       VSB = VISIBILITY
       HX  = HEAT INDEX
$$




USA.gov is the U.S. government's official web portal to all federal, state and local government web resources and services.